Location: Beekmeers
(50.8953°N, 3.6968°E)
Time: 10:12:34
(UTC+00:00)

COBE Rocket - Visible Passes

Search period start: 09 November 2025 00:00
Search period end: 19 November 2025 00:00
Orbit: 674 x 773 km, 97.1° (Epoch: 08 November)

Date Brightness Start Highest point End Pass type
(mag) Time Alt. Az. Time Alt. Az. Time Alt. Az.
09 Nov 6.1 06:15:46 10° ESE 06:19:36 23° ENE 06:23:22 10° N visible
10 Nov 6.8 05:30:42 10° ENE 05:31:24 10° NE 05:32:07 10° NE visible
11 Nov 6.1 06:16:24 10° ESE 06:20:15 24° ENE 06:24:02 10° N visible
12 Nov 6.8 05:31:05 10° ENE 05:32:03 11° NE 05:32:59 10° NE visible
13 Nov 6.0 06:17:01 10° ESE 06:20:53 24° ENE 06:24:42 10° N visible
14 Nov 6.7 05:31:33 10° ENE 05:32:40 11° NE 05:33:48 10° NE visible
15 Nov 6.0 06:17:38 10° ESE 06:21:32 25° ENE 06:25:21 10° N visible
16 Nov 6.7 05:32:01 10° ENE 05:33:17 11° NE 05:34:35 10° NE visible
17 Nov 5.9 06:18:15 10° ESE 06:22:09 25° ENE 06:26:00 10° N visible
18 Nov 6.6 05:32:29 10° ENE 05:33:54 11° NE 05:35:20 10° NE visible
